uvnitr ulu
datum;časová značka;teplota
31.10.2010 16:57:10;1288540630000;20.18
31.10.2010 17:07:16;1288541236000;20.12
31.10.2010 17:17:21;1288541841000;20.12
31.10.2010 17:27:26;1288542446000;20.31
31.10.2010 17:37:32;1288543052000;20.31
31.10.2010 17:47:36;1288543656000;20.25
31.10.2010 17:57:41;1288544261000;20.12
31.10.2010 18:07:46;1288544866000;19.93
31.10.2010 18:17:50;1288545470000;19.93
31.10.2010 18:27:55;1288546075000;19.87
31.10.2010 18:38:19;1288546699000;19.81
31.10.2010 18:48:23;1288547303000;19.68
31.10.2010 18:58:28;1288547908000;19.62
31.10.2010 19:08:32;1288548512000;19.56
31.10.2010 19:18:36;1288549116000;19.5
31.10.2010 19:28:41;1288549721000;19.43
31.10.2010 19:38:46;1288550326000;19.43
31.10.2010 19:49:29;1288550969000;19.56
31.10.2010 19:59:33;1288551573000;19.37
31.10.2010 20:09:37;1288552177000;19.25
31.10.2010 20:19:41;1288552781000;19.18
31.10.2010 20:29:45;1288553385000;19.0
31.10.2010 20:39:49;1288553989000;18.87
31.10.2010 20:49:54;1288554594000;18.75
31.10.2010 20:59:58;1288555198000;18.62
31.10.2010 21:10:02;1288555802000;18.56
31.10.2010 21:20:06;1288556406000;18.31
31.10.2010 21:30:29;1288557029000;18.25
31.10.2010 21:40:33;1288557633000;18.12
31.10.2010 21:50:37;1288558237000;18.06
31.10.2010 22:00:41;1288558841000;17.93
31.10.2010 22:10:44;1288559444000;17.87
31.10.2010 22:20:49;1288560049000;17.75
31.10.2010 22:30:53;1288560653000;17.56
31.10.2010 22:40:57;1288561257000;17.43
31.10.2010 22:51:01;1288561861000;17.31
31.10.2010 23:01:04;1288562464000;17.37
31.10.2010 23:11:08;1288563068000;17.25
31.10.2010 23:21:12;1288563672000;17.12
31.10.2010 23:31:16;1288564276000;17.0
31.10.2010 23:41:40;1288564900000;16.68
31.10.2010 23:51:43;1288565503000;16.81
01.11.2010 00:01:47;1288566107000;16.81
01.11.2010 00:11:51;1288566711000;16.87
01.11.2010 00:21:55;1288567315000;16.87
01.11.2010 00:31:58;1288567918000;16.93
01.11.2010 00:42:02;1288568522000;16.87
01.11.2010 00:52:06;1288569126000;16.87
01.11.2010 01:02:10;1288569730000;16.81
01.11.2010 01:12:14;1288570334000;16.75
01.11.2010 01:22:19;1288570939000;16.75
01.11.2010 01:32:22;1288571542000;16.68
01.11.2010 01:42:26;1288572146000;16.62
01.11.2010 01:52:30;1288572750000;16.5
01.11.2010 02:02:34;1288573354000;16.43
01.11.2010 02:12:37;1288573957000;16.5
01.11.2010 02:23:01;1288574581000;16.37
01.11.2010 02:33:04;1288575184000;16.37
01.11.2010 02:43:08;1288575788000;16.31
01.11.2010 02:53:13;1288576393000;16.12
01.11.2010 03:03:16;1288576996000;16.0
01.11.2010 03:13:20;1288577600000;15.93
01.11.2010 03:23:24;1288578204000;16.0
01.11.2010 03:33:27;1288578807000;16.0
01.11.2010 03:43:31;1288579411000;15.93
01.11.2010 03:53:35;1288580015000;15.87
01.11.2010 04:03:38;1288580618000;15.81
01.11.2010 04:13:43;1288581223000;15.81
01.11.2010 04:23:46;1288581826000;15.75
01.11.2010 04:33:50;1288582430000;15.68
01.11.2010 04:43:54;1288583034000;15.62
01.11.2010 04:53:57;1288583637000;15.56
01.11.2010 05:04:00;1288584240000;15.43
01.11.2010 05:14:04;1288584844000;15.31
01.11.2010 05:24:09;1288585449000;15.25
01.11.2010 05:34:32;1288586072000;15.31
01.11.2010 05:44:35;1288586675000;15.25
01.11.2010 05:54:38;1288587278000;14.93
01.11.2010 06:04:42;1288587882000;15.12
01.11.2010 06:14:45;1288588485000;15.06
01.11.2010 06:24:50;1288589090000;15.18
01.11.2010 06:34:54;1288589694000;15.06
01.11.2010 06:44:57;1288590297000;14.75
01.11.2010 06:55:00;1288590900000;14.81
01.11.2010 07:05:04;1288591504000;14.81
01.11.2010 07:15:07;1288592107000;14.75
01.11.2010 07:25:11;1288592711000;14.68
01.11.2010 07:35:14;1288593314000;14.68
01.11.2010 07:45:18;1288593918000;14.62
01.11.2010 07:55:21;1288594521000;14.62
01.11.2010 08:05:25;1288595125000;14.56
01.11.2010 08:15:29;1288595729000;14.62
01.11.2010 08:25:33;1288596333000;14.56
01.11.2010 08:35:36;1288596936000;14.5
01.11.2010 08:45:40;1288597540000;14.43
01.11.2010 08:55:43;1288598143000;14.43
01.11.2010 09:05:47;1288598747000;14.25
01.11.2010 09:15:50;1288599350000;14.37
01.11.2010 09:25:54;1288599954000;14.37
01.11.2010 09:35:59;1288600559000;14.37
01.11.2010 09:46:02;1288601162000;14.37
01.11.2010 09:56:06;1288601766000;14.37
01.11.2010 10:06:10;1288602370000;14.43
01.11.2010 10:16:13;1288602973000;14.43
01.11.2010 10:26:17;1288603577000;14.43
01.11.2010 10:36:21;1288604181000;14.43
01.11.2010 10:46:25;1288604785000;14.56
01.11.2010 10:56:29;1288605389000;14.62
01.11.2010 11:06:33;1288605993000;14.68
01.11.2010 11:16:38;1288606598000;14.75
01.11.2010 11:26:42;1288607202000;14.87
01.11.2010 11:36:46;1288607806000;15.0
01.11.2010 11:46:51;1288608411000;15.12
01.11.2010 11:56:55;1288609015000;15.18
01.11.2010 12:06:59;1288609619000;15.31
01.11.2010 12:17:04;1288610224000;15.56
01.11.2010 12:27:09;1288610829000;15.68
01.11.2010 12:37:13;1288611433000;15.81
01.11.2010 12:47:18;1288612038000;15.87
01.11.2010 12:57:22;1288612642000;16.0
01.11.2010 13:07:27;1288613247000;16.06
01.11.2010 13:17:32;1288613852000;16.18
01.11.2010 13:28:16;1288614496000;16.5
01.11.2010 13:38:21;1288615101000;16.43
01.11.2010 13:48:26;1288615706000;16.56
01.11.2010 13:58:31;1288616311000;16.68
01.11.2010 14:08:36;1288616916000;16.75
01.11.2010 14:18:40;1288617520000;16.87
01.11.2010 14:28:45;1288618125000;16.93
01.11.2010 14:38:50;1288618730000;17.12
01.11.2010 14:48:55;1288619335000;17.25
01.11.2010 14:59:00;1288619940000;17.31
01.11.2010 15:09:05;1288620545000;17.5
01.11.2010 15:19:09;1288621149000;17.56
01.11.2010 15:29:15;1288621755000;17.5
01.11.2010 15:39:20;1288622360000;17.62
01.11.2010 15:49:25;1288622965000;17.75
01.11.2010 15:59:29;1288623569000;17.93
01.11.2010 16:09:34;1288624174000;17.93
01.11.2010 16:19:40;1288624780000;18.06
01.11.2010 16:30:04;1288625404000;18.12
01.11.2010 16:40:09;1288626009000;18.06
01.11.2010 16:50:13;1288626613000;18.12
01.11.2010 17:00:18;1288627218000;18.18
01.11.2010 17:10:23;1288627823000;17.87
01.11.2010 17:20:27;1288628427000;17.87
01.11.2010 17:30:32;1288629032000;17.75
01.11.2010 17:40:36;1288629636000;18.18
01.11.2010 17:50:41;1288630241000;18.18
01.11.2010 18:00:45;1288630845000;18.12
01.11.2010 18:10:49;1288631449000;17.93
01.11.2010 18:20:54;1288632054000;17.81
01.11.2010 18:30:58;1288632658000;17.93
01.11.2010 18:41:02;1288633262000;17.81
01.11.2010 18:51:26;1288633886000;17.81
01.11.2010 19:01:30;1288634490000;17.81
01.11.2010 19:11:34;1288635094000;17.75
01.11.2010 19:21:38;1288635698000;17.68
01.11.2010 19:31:42;1288636302000;17.75
01.11.2010 19:41:46;1288636906000;17.62
01.11.2010 19:51:51;1288637511000;17.5
01.11.2010 20:01:55;1288638115000;17.5
01.11.2010 20:11:59;1288638719000;17.43
01.11.2010 20:22:03;1288639323000;17.31
01.11.2010 20:32:26;1288639946000;17.37
01.11.2010 20:42:30;1288640550000;17.37
01.11.2010 20:52:35;1288641155000;17.25
01.11.2010 21:02:39;1288641759000;17.25
01.11.2010 21:12:43;1288642363000;17.25
01.11.2010 21:22:47;1288642967000;17.31
01.11.2010 21:32:51;1288643571000;17.25
01.11.2010 21:42:54;1288644174000;17.12
01.11.2010 21:52:58;1288644778000;17.18
01.11.2010 22:03:02;1288645382000;17.12
01.11.2010 22:13:07;1288645987000;17.06
01.11.2010 22:23:11;1288646591000;17.0
01.11.2010 22:33:34;1288647214000;17.0
01.11.2010 22:43:38;1288647818000;16.87
01.11.2010 22:53:43;1288648423000;16.87
01.11.2010 23:03:46;1288649026000;16.75
01.11.2010 23:13:50;1288649630000;16.68
01.11.2010 23:23:54;1288650234000;16.75
01.11.2010 23:33:58;1288650838000;16.68
01.11.2010 23:44:01;1288651441000;16.68
01.11.2010 23:54:06;1288652046000;16.68
02.11.2010 00:04:10;1288652650000;16.62
02.11.2010 00:14:13;1288653253000;16.5
02.11.2010 00:24:37;1288653877000;16.5
02.11.2010 00:34:40;1288654480000;16.5
02.11.2010 00:44:45;1288655085000;16.5
02.11.2010 00:55:08;1288655708000;16.5
02.11.2010 01:05:12;1288656312000;16.31
02.11.2010 01:15:16;1288656916000;16.31
02.11.2010 01:25:19;1288657519000;16.31
02.11.2010 01:35:23;1288658123000;16.25
02.11.2010 01:45:28;1288658728000;16.25
02.11.2010 01:55:31;1288659331000;16.25
02.11.2010 02:05:35;1288659935000;16.18
02.11.2010 02:15:39;1288660539000;16.12
02.11.2010 02:25:43;1288661143000;16.06
02.11.2010 02:35:47;1288661747000;15.93
02.11.2010 02:45:51;1288662351000;15.87
02.11.2010 02:55:55;1288662955000;15.87
02.11.2010 03:05:59;1288663559000;15.81
02.11.2010 03:16:02;1288664162000;15.75
02.11.2010 03:26:06;1288664766000;15.68
02.11.2010 03:36:29;1288665389000;15.68
02.11.2010 03:46:33;1288665993000;15.68
02.11.2010 03:56:37;1288666597000;15.62
02.11.2010 04:06:41;1288667201000;15.62
02.11.2010 04:16:44;1288667804000;15.56
02.11.2010 04:26:48;1288668408000;15.5
02.11.2010 04:36:52;1288669012000;15.37
02.11.2010 04:46:56;1288669616000;15.37
02.11.2010 04:57:00;1288670220000;15.37
02.11.2010 05:07:04;1288670824000;15.37
02.11.2010 05:17:07;1288671427000;15.31
02.11.2010 05:27:11;1288672031000;15.18
02.11.2010 05:37:14;1288672634000;15.12
02.11.2010 05:47:19;1288673239000;15.0
02.11.2010 05:57:22;1288673842000;15.31
02.11.2010 06:07:26;1288674446000;15.31
02.11.2010 06:18:08;1288675088000;15.18
02.11.2010 06:28:13;1288675693000;15.12
02.11.2010 06:38:17;1288676297000;15.12
02.11.2010 06:48:20;1288676900000;15.12
02.11.2010 06:58:24;1288677504000;15.06
02.11.2010 07:08:28;1288678108000;15.12
02.11.2010 07:18:32;1288678712000;15.06
02.11.2010 07:28:35;1288679315000;15.06
02.11.2010 07:38:39;1288679919000;15.0
02.11.2010 07:48:43;1288680523000;15.0
02.11.2010 07:58:47;1288681127000;15.0
02.11.2010 08:08:51;1288681731000;15.0
02.11.2010 08:18:54;1288682334000;14.93
02.11.2010 08:28:58;1288682938000;14.93
02.11.2010 08:39:02;1288683542000;14.81
02.11.2010 08:49:06;1288684146000;14.81
02.11.2010 08:59:29;1288684769000;14.81
02.11.2010 09:09:33;1288685373000;14.87
02.11.2010 09:19:37;1288685977000;14.93
02.11.2010 09:29:40;1288686580000;14.93
02.11.2010 09:39:45;1288687185000;14.93
02.11.2010 09:49:49;1288687789000;14.93
02.11.2010 09:59:53;1288688393000;15.06
02.11.2010 10:09:57;1288688997000;15.12
02.11.2010 10:20:02;1288689602000;15.25
02.11.2010 10:30:06;1288690206000;15.31
02.11.2010 10:40:10;1288690810000;15.43
02.11.2010 10:50:15;1288691415000;15.5
02.11.2010 11:00:19;1288692019000;15.62
02.11.2010 11:10:24;1288692624000;15.81
02.11.2010 11:20:30;1288693230000;15.93
02.11.2010 11:30:34;1288693834000;16.06
02.11.2010 11:40:39;1288694439000;16.18
02.11.2010 11:50:44;1288695044000;16.31
02.11.2010 12:00:48;1288695648000;16.43
02.11.2010 12:10:53;1288696253000;16.43
02.11.2010 12:20:59;1288696859000;16.56
02.11.2010 12:31:03;1288697463000;16.75
02.11.2010 12:41:08;1288698068000;16.87
02.11.2010 12:51:13;1288698673000;17.0
02.11.2010 13:01:17;1288699277000;17.25
02.11.2010 13:11:23;1288699883000;17.5
02.11.2010 13:21:28;1288700488000;17.68
02.11.2010 13:31:33;1288701093000;18.0
02.11.2010 13:41:38;1288701698000;18.18
02.11.2010 13:51:44;1288702304000;18.37
02.11.2010 14:01:50;1288702910000;18.81
02.11.2010 14:12:15;1288703535000;19.18
02.11.2010 14:22:21;1288704141000;20.18
02.11.2010 14:32:27;1288704747000;19.93
02.11.2010 14:42:33;1288705353000;20.25
02.11.2010 14:52:39;1288705959000;19.93
02.11.2010 15:02:45;1288706565000;20.25
02.11.2010 15:12:50;1288707170000;20.06
02.11.2010 15:22:55;1288707775000;20.12
02.11.2010 15:33:01;1288708381000;20.56
02.11.2010 15:43:07;1288708987000;20.62
02.11.2010 15:53:12;1288709592000;20.81
02.11.2010 16:03:17;1288710197000;20.81
02.11.2010 16:13:22;1288710802000;20.81
02.11.2010 16:23:28;1288711408000;20.18
02.11.2010 16:33:33;1288712013000;20.18
02.11.2010 16:43:38;1288712618000;20.31
02.11.2010 16:53:43;1288713223000;20.43
02.11.2010 17:03:49;1288713829000;20.25
02.11.2010 17:13:54;1288714434000;20.12
02.11.2010 17:23:59;1288715039000;20.43
02.11.2010 17:34:23;1288715663000;20.5
02.11.2010 17:44:29;1288716269000;20.5
02.11.2010 17:54:33;1288716873000;20.62
02.11.2010 18:04:38;1288717478000;20.37
02.11.2010 18:14:43;1288718083000;20.37
02.11.2010 18:24:48;1288718688000;20.37
02.11.2010 18:34:53;1288719293000;20.43
02.11.2010 18:44:57;1288719897000;20.43
02.11.2010 18:55:02;1288720502000;20.56
02.11.2010 19:05:08;1288721108000;20.43
02.11.2010 19:15:12;1288721712000;20.37
02.11.2010 19:25:36;1288722336000;20.37
02.11.2010 19:35:40;1288722940000;20.37
02.11.2010 19:45:46;1288723546000;20.43
02.11.2010 19:55:50;1288724150000;20.5
02.11.2010 20:05:54;1288724754000;20.25
02.11.2010 20:16:00;1288725360000;20.5
02.11.2010 20:26:04;1288725964000;20.31
02.11.2010 20:36:09;1288726569000;20.25
02.11.2010 20:46:13;1288727173000;20.31
02.11.2010 20:56:17;1288727777000;20.43
02.11.2010 21:06:22;1288728382000;20.5
02.11.2010 21:16:27;1288728987000;20.37
02.11.2010 21:26:31;1288729591000;20.25
02.11.2010 21:36:36;1288730196000;20.12
02.11.2010 21:47:19;1288730839000;19.87
02.11.2010 21:57:23;1288731443000;20.06
02.11.2010 22:07:29;1288732049000;20.25
02.11.2010 22:17:33;1288732653000;20.18
02.11.2010 22:27:37;1288733257000;20.0
02.11.2010 22:37:42;1288733862000;20.0
02.11.2010 22:47:47;1288734467000;20.12
02.11.2010 22:57:51;1288735071000;20.0
02.11.2010 23:07:56;1288735676000;19.87
02.11.2010 23:18:00;1288736280000;19.75
02.11.2010 23:28:05;1288736885000;19.68
02.11.2010 23:38:09;1288737489000;19.68
02.11.2010 23:48:13;1288738093000;19.75
02.11.2010 23:58:18;1288738698000;19.75
03.11.2010 00:09:02;1288739342000;19.75
03.11.2010 00:19:06;1288739946000;19.68
03.11.2010 00:29:10;1288740550000;19.68
03.11.2010 00:39:15;1288741155000;19.68
03.11.2010 00:49:19;1288741759000;19.75
03.11.2010 00:59:23;1288742363000;19.68
03.11.2010 01:09:28;1288742968000;19.75
03.11.2010 01:19:52;1288743592000;19.62
03.11.2010 01:29:56;1288744196000;19.62
03.11.2010 01:40:00;1288744800000;19.75
03.11.2010 01:50:04;1288745404000;19.5
03.11.2010 02:00:09;1288746009000;19.5
03.11.2010 02:10:13;1288746613000;19.56
03.11.2010 02:20:17;1288747217000;19.43
03.11.2010 02:30:41;1288747841000;19.37
03.11.2010 02:40:46;1288748446000;19.31
03.11.2010 02:50:50;1288749050000;19.25
03.11.2010 03:00:54;1288749654000;19.25
03.11.2010 03:10:58;1288750258000;19.12
03.11.2010 03:21:02;1288750862000;19.0
03.11.2010 03:31:06;1288751466000;19.06
03.11.2010 03:41:11;1288752071000;19.0
03.11.2010 03:51:15;1288752675000;18.81
03.11.2010 04:01:18;1288753278000;18.81
03.11.2010 04:11:23;1288753883000;18.68
03.11.2010 04:21:27;1288754487000;18.43
03.11.2010 04:31:31;1288755091000;18.43
03.11.2010 04:41:36;1288755696000;18.5
03.11.2010 04:51:40;1288756300000;18.43
03.11.2010 05:01:44;1288756904000;18.37
03.11.2010 05:11:48;1288757508000;18.31
03.11.2010 05:21:52;1288758112000;18.12
03.11.2010 05:31:56;1288758716000;18.0
03.11.2010 05:42:00;1288759320000;18.0
03.11.2010 05:52:25;1288759945000;18.0
03.11.2010 06:02:48;1288760568000;17.93
03.11.2010 06:12:52;1288761172000;17.87
03.11.2010 06:22:57;1288761777000;17.81
03.11.2010 06:33:01;1288762381000;17.81
03.11.2010 06:43:04;1288762984000;17.75
03.11.2010 06:53:28;1288763608000;17.75
03.11.2010 07:03:33;1288764213000;17.68
03.11.2010 07:13:37;1288764817000;17.68
03.11.2010 07:23:41;1288765421000;17.68
03.11.2010 07:33:44;1288766024000;17.56
03.11.2010 07:43:49;1288766629000;17.5
03.11.2010 07:53:53;1288767233000;17.43
03.11.2010 08:03:57;1288767837000;17.5
03.11.2010 08:14:21;1288768461000;17.37
03.11.2010 08:24:25;1288769065000;17.43
03.11.2010 08:34:29;1288769669000;17.31
03.11.2010 08:44:33;1288770273000;17.43
03.11.2010 08:54:38;1288770878000;17.5
03.11.2010 09:04:42;1288771482000;17.5
03.11.2010 09:14:46;1288772086000;17.43
03.11.2010 09:24:50;1288772690000;17.37
03.11.2010 09:34:55;1288773295000;17.5
03.11.2010 09:44:59;1288773899000;17.43
03.11.2010 09:55:03;1288774503000;17.43
03.11.2010 10:05:07;1288775107000;17.5
03.11.2010 10:15:12;1288775712000;17.37
03.11.2010 10:25:16;1288776316000;17.25
03.11.2010 10:35:20;1288776920000;17.31
03.11.2010 10:45:24;1288777524000;17.25
03.11.2010 10:55:29;1288778129000;17.37
03.11.2010 11:05:33;1288778733000;17.37
03.11.2010 11:15:37;1288779337000;17.43
03.11.2010 11:25:41;1288779941000;17.37
03.11.2010 11:35:45;1288780545000;17.43
03.11.2010 11:45:49;1288781149000;17.56
03.11.2010 11:55:53;1288781753000;17.68
03.11.2010 12:05:57;1288782357000;17.75
03.11.2010 12:16:01;1288782961000;17.81
03.11.2010 12:26:06;1288783566000;17.81
03.11.2010 12:36:10;1288784170000;17.75
03.11.2010 12:46:14;1288784774000;17.81
03.11.2010 12:56:18;1288785378000;17.81
03.11.2010 13:06:23;1288785983000;17.81
03.11.2010 13:16:27;1288786587000;17.81
03.11.2010 13:26:31;1288787191000;17.93
03.11.2010 13:36:35;1288787795000;17.87
03.11.2010 13:46:39;1288788399000;17.87
03.11.2010 13:56:44;1288789004000;18.0
03.11.2010 14:06:48;1288789608000;18.06
03.11.2010 14:16:53;1288790213000;18.06
03.11.2010 14:26:57;1288790817000;18.0
03.11.2010 14:37:01;1288791421000;18.06
03.11.2010 14:47:05;1288792025000;18.06
03.11.2010 14:57:10;1288792630000;18.0
03.11.2010 15:07:14;1288793234000;18.06
03.11.2010 15:17:19;1288793839000;17.93
03.11.2010 15:27:23;1288794443000;17.93
03.11.2010 15:37:27;1288795047000;18.0
03.11.2010 15:47:32;1288795652000;17.93
03.11.2010 15:57:36;1288796256000;17.93
03.11.2010 16:07:41;1288796861000;17.93
03.11.2010 16:17:46;1288797466000;17.93
03.11.2010 16:27:49;1288798069000;18.0
03.11.2010 16:37:54;1288798674000;17.93
03.11.2010 16:47:58;1288799278000;18.0
03.11.2010 16:58:03;1288799883000;18.0
03.11.2010 17:08:08;1288800488000;18.0
03.11.2010 17:18:11;1288801091000;18.06
03.11.2010 17:28:16;1288801696000;17.93
03.11.2010 17:38:20;1288802300000;17.87
03.11.2010 17:48:24;1288802904000;17.87
03.11.2010 17:58:29;1288803509000;17.93
03.11.2010 18:08:33;1288804113000;18.06
03.11.2010 18:18:38;1288804718000;18.06
03.11.2010 18:28:42;1288805322000;18.06
03.11.2010 18:38:46;1288805926000;17.93
03.11.2010 18:48:50;1288806530000;18.06
03.11.2010 18:58:55;1288807135000;18.0
03.11.2010 19:08:59;1288807739000;17.93
03.11.2010 19:19:03;1288808343000;17.87
03.11.2010 19:29:08;1288808948000;17.81
03.11.2010 19:39:13;1288809553000;17.93
03.11.2010 19:49:16;1288810156000;17.87
03.11.2010 19:59:21;1288810761000;17.93
03.11.2010 20:09:25;1288811365000;17.87
03.11.2010 20:19:29;1288811969000;17.93
03.11.2010 20:29:34;1288812574000;17.93
03.11.2010 20:39:38;1288813178000;17.87
03.11.2010 20:49:42;1288813782000;17.87
03.11.2010 20:59:47;1288814387000;17.87
03.11.2010 21:09:51;1288814991000;17.87
03.11.2010 21:19:55;1288815595000;17.81
03.11.2010 21:30:18;1288816218000;17.75
03.11.2010 21:40:23;1288816823000;17.87
03.11.2010 21:50:27;1288817427000;17.93
03.11.2010 22:00:32;1288818032000;17.81
03.11.2010 22:10:36;1288818636000;17.81
03.11.2010 22:20:40;1288819240000;17.81
03.11.2010 22:30:45;1288819845000;17.75
03.11.2010 22:40:49;1288820449000;17.75
03.11.2010 22:50:53;1288821053000;17.68
03.11.2010 23:00:57;1288821657000;17.68
03.11.2010 23:11:02;1288822262000;17.68
03.11.2010 23:21:06;1288822866000;17.62
03.11.2010 23:31:11;1288823471000;17.68
03.11.2010 23:41:15;1288824075000;17.68
03.11.2010 23:51:19;1288824679000;17.68
04.11.2010 00:01:23;1288825283000;17.68
04.11.2010 00:11:28;1288825888000;17.75
04.11.2010 00:21:32;1288826492000;17.68
04.11.2010 00:31:36;1288827096000;17.68
04.11.2010 00:41:40;1288827700000;17.5
04.11.2010 00:51:45;1288828305000;17.56
04.11.2010 01:01:49;1288828909000;17.56
04.11.2010 01:11:54;1288829514000;17.5
04.11.2010 01:21:58;1288830118000;17.5
04.11.2010 01:32:02;1288830722000;17.5
04.11.2010 01:42:06;1288831326000;17.5
04.11.2010 01:52:11;1288831931000;17.5
04.11.2010 02:02:15;1288832535000;17.43
04.11.2010 02:12:20;1288833140000;17.5
04.11.2010 02:22:24;1288833744000;17.5
04.11.2010 02:32:27;1288834347000;17.43
04.11.2010 02:42:32;1288834952000;17.43
04.11.2010 02:52:36;1288835556000;17.31
04.11.2010 03:02:40;1288836160000;17.31
04.11.2010 03:12:45;1288836765000;17.31
04.11.2010 03:22:48;1288837368000;17.31
04.11.2010 03:32:53;1288837973000;17.31
04.11.2010 03:42:57;1288838577000;17.25
04.11.2010 03:53:01;1288839181000;17.25
04.11.2010 04:03:06;1288839786000;17.25
04.11.2010 04:13:30;1288840410000;17.18
04.11.2010 04:23:33;1288841013000;17.18
04.11.2010 04:33:38;1288841618000;17.18
04.11.2010 04:43:42;1288842222000;17.12
04.11.2010 04:53:47;1288842827000;17.12
04.11.2010 05:03:51;1288843431000;17.06
04.11.2010 05:13:55;1288844035000;17.06
04.11.2010 05:24:00;1288844640000;17.12
04.11.2010 05:34:04;1288845244000;17.06
04.11.2010 05:44:08;1288845848000;17.06
04.11.2010 05:54:13;1288846453000;17.0
04.11.2010 06:04:16;1288847056000;17.0
04.11.2010 06:14:20;1288847660000;17.0
04.11.2010 06:24:25;1288848265000;17.0
04.11.2010 06:34:29;1288848869000;16.93
04.11.2010 06:44:34;1288849474000;16.93
04.11.2010 06:54:38;1288850078000;17.0
04.11.2010 07:04:42;1288850682000;16.93
04.11.2010 07:14:46;1288851286000;16.93
04.11.2010 07:24:50;1288851890000;16.87
04.11.2010 07:34:54;1288852494000;16.81
04.11.2010 07:44:59;1288853099000;16.81
04.11.2010 07:55:03;1288853703000;16.81
04.11.2010 08:05:07;1288854307000;16.81
04.11.2010 08:15:12;1288854912000;16.81
04.11.2010 08:25:16;1288855516000;16.75
04.11.2010 08:35:21;1288856121000;16.81
04.11.2010 08:45:25;1288856725000;16.75
04.11.2010 08:55:28;1288857328000;16.75
04.11.2010 09:05:33;1288857933000;16.75
04.11.2010 09:15:57;1288858557000;16.75
04.11.2010 09:26:02;1288859162000;16.81
04.11.2010 09:36:05;1288859765000;16.75
04.11.2010 09:46:10;1288860370000;16.75
04.11.2010 09:56:14;1288860974000;16.75
04.11.2010 10:06:19;1288861579000;16.75
04.11.2010 10:16:23;1288862183000;16.68
04.11.2010 10:26:46;1288862806000;16.68
04.11.2010 10:36:51;1288863411000;16.75
04.11.2010 10:46:55;1288864015000;16.75
04.11.2010 10:57:01;1288864621000;16.75
04.11.2010 11:07:04;1288865224000;16.75
04.11.2010 11:17:09;1288865829000;16.68
04.11.2010 11:27:13;1288866433000;16.68
04.11.2010 11:37:17;1288867037000;16.75
04.11.2010 11:47:22;1288867642000;16.81
04.11.2010 11:57:26;1288868246000;16.81
04.11.2010 12:07:31;1288868851000;16.81
04.11.2010 12:17:36;1288869456000;16.81
04.11.2010 12:27:41;1288870061000;16.81
04.11.2010 12:37:45;1288870665000;16.87
04.11.2010 12:47:50;1288871270000;16.93
04.11.2010 12:57:54;1288871874000;16.87
04.11.2010 13:07:58;1288872478000;16.87
04.11.2010 13:18:23;1288873103000;17.0
04.11.2010 13:28:27;1288873707000;16.93
04.11.2010 13:38:32;1288874312000;17.06
04.11.2010 13:48:37;1288874917000;17.0
04.11.2010 13:58:42;1288875522000;17.12
04.11.2010 14:08:46;1288876126000;17.0
04.11.2010 14:18:50;1288876730000;17.06
04.11.2010 14:29:15;1288877355000;17.0
04.11.2010 14:39:19;1288877959000;17.06
04.11.2010 14:49:24;1288878564000;17.0
04.11.2010 14:59:29;1288879169000;17.06
04.11.2010 15:09:34;1288879774000;17.06
04.11.2010 15:19:38;1288880378000;17.06
04.11.2010 15:29:43;1288880983000;17.12
04.11.2010 15:39:48;1288881588000;17.12
04.11.2010 15:49:52;1288882192000;17.18
04.11.2010 15:59:57;1288882797000;17.18
04.11.2010 16:10:02;1288883402000;17.25
04.11.2010 16:20:07;1288884007000;17.25
04.11.2010 16:30:11;1288884611000;17.25
04.11.2010 16:40:16;1288885216000;17.31
04.11.2010 16:50:20;1288885820000;17.37
04.11.2010 17:00:25;1288886425000;17.43
04.11.2010 17:10:30;1288887030000;17.43
04.11.2010 17:20:34;1288887634000;17.5
04.11.2010 17:30:39;1288888239000;17.43
04.11.2010 17:40:43;1288888843000;17.5
04.11.2010 17:50:49;1288889449000;17.68
04.11.2010 18:00:53;1288890053000;17.68
04.11.2010 18:10:58;1288890658000;17.62
04.11.2010 18:21:22;1288891282000;17.62
04.11.2010 18:31:26;1288891886000;17.68
04.11.2010 18:41:51;1288892511000;17.68
04.11.2010 18:51:55;1288893115000;17.75
04.11.2010 19:02:00;1288893720000;17.75
04.11.2010 19:12:05;1288894325000;17.81
04.11.2010 19:22:10;1288894930000;17.81
04.11.2010 19:32:14;1288895534000;17.81
04.11.2010 19:42:19;1288896139000;17.87
04.11.2010 19:52:23;1288896743000;17.87
04.11.2010 20:02:28;1288897348000;17.87
04.11.2010 20:12:33;1288897953000;17.87
04.11.2010 20:22:37;1288898557000;17.93
04.11.2010 20:32:43;1288899163000;18.0
04.11.2010 20:42:47;1288899767000;17.87
04.11.2010 20:52:52;1288900372000;17.87
04.11.2010 21:02:56;1288900976000;17.93
04.11.2010 21:13:02;1288901582000;17.93
04.11.2010 21:23:06;1288902186000;17.87
04.11.2010 21:33:10;1288902790000;17.93
04.11.2010 21:43:16;1288903396000;18.0
04.11.2010 21:53:20;1288904000000;18.0